EW3845 Weather Reports


time (UTC)temp
F
wind
direction
speed
knots
gust
knots
rain 1hr
in
rain 24hr
in
rain mn
in
humidity
%
barometer
mb
20260508081605 55 139 0.0 0.0 0.00 0.00 0.00 86 1017.3
20260508080052 54 27 0.0 0.0 0.00 0.00 0.00 87 1017.3
20260508074550 53 158 0.0 0.0 0.00 0.00 0.00 89 1017.4
20260508073104 52 146 0.0 0.0 0.00 0.00 0.00 90 1017.4
20260508071547 51 32 0.0 0.0 0.00 0.00 0.00 90 1017.4
20260508070048 51 31 0.0 0.0 0.00 0.00 0.00 90 1017.2
20260508064547 50 51 0.0 0.0 0.00 0.00 0.00 91 1017.1
20260508063043 50 22 0.0 0.0 0.00 0.00 0.00 91 1016.9
20260508061543 49 47 0.0 0.0 0.00 0.00 0.00 91 1016.8
20260508060058 49 44 0.0 0.0 0.00 0.00 0.00 91 1016.7
20260508054539 48 68 0.0 0.0 0.00 0.00 0.00 91 1016.8
20260508053037 48 68 0.0 0.0 0.00 0.00 0.00 91 1016.6
20260508051545 48 32 0.0 0.0 0.00 0.00 0.00 91 1016.7
20260508050036 48 9 0.0 0.0 0.00 0.00 0.00 91 1016.4
20260508044538 48 38 0.0 0.0 0.00 0.00 0.00 91 1016.3
20260508043034 47 39 0.0 0.0 0.00 0.00 0.00 91 1016.3
20260508041533 47 112 0.0 0.0 0.00 0.00 0.00 90 1016.3
20260508040045 47 30 0.0 0.0 0.00 0.00 0.00 90 1016.2
20260508034543 47 24 0.0 0.0 0.00 0.00 0.00 90 1016.3
20260508033032 47 19 0.0 0.0 0.00 0.00 0.00 90 1016.2
20260508031536 47 19 0.0 0.0 0.00 0.00 0.00 90 1016.1
20260508030031 47 19 0.0 0.0 0.00 0.00 0.00 90 1016.1
20260508024552 47 19 0.0 0.0 0.00 0.00 0.00 90 1016.1
20260508023030 47 19 0.0 0.0 0.00 0.00 0.00 89 1016.2
20260508021529 47 19 0.0 0.0 0.00 0.00 0.00 89 1016.1
20260508020029 48 19 0.0 0.0 0.00 0.00 0.00 89 1016.1
20260508014527 48 19 0.0 0.0 0.00 0.00 0.00 89 1016.2
20260508013032 48 19 0.0 0.0 0.00 0.00 0.00 88 1016.1
20260508011530 48 19 0.0 0.0 0.00 0.00 0.00 87 1016.2
20260508010023 48 19 0.0 0.0 0.00 0.00 0.00 87 1016.2
20260508004537 49 19 0.0 0.0 0.00 0.00 0.00 86 1016.2
20260508003019 49 19 0.0 0.0 0.00 0.00 0.00 86 1016.2
20260508001529 50 19 0.0 0.0 0.00 0.00 0.00 86 1016.3
20260508000016 50 19 0.0 0.0 0.00 0.00 0.00 85 1016.4
20260507234515 50 19 0.0 0.0 0.00 0.00 0.00 85 1016.4
20260507233013 50 19 0.0 0.0 0.00 0.00 0.00 84 1016.5
20260507231512 50 19 0.0 0.0 0.00 0.00 0.00 83 1016.5
20260507230010 51 19 0.0 0.0 0.00 0.00 0.00 82 1016.4
20260507224512 51 19 0.0 0.0 0.00 0.00 0.00 82 1016.4
20260507223007 52 19 0.0 0.0 0.00 0.00 0.00 81 1016.3
20260507221506 52 19 0.0 0.0 0.00 0.00 0.00 80 1016.4
20260507220004 52 19 0.0 0.0 0.00 0.00 0.00 78 1016.3
20260507214503 53 19 0.0 0.0 0.00 0.00 0.00 78 1016.4
20260507213002 53 19 0.0 0.0 0.00 0.00 0.00 77 1016.2
20260507211649 54 19 0.0 0.0 0.00 0.00 0.00 76 1016.2
20260507211548 54 19 0.0 0.0 0.00 0.00 0.00 76 1016.2
20260507211056 54 19 0.0 0.0 0.00 0.00 0.00 76 1016.2
20260507210607 55 19 0.0 0.0 0.00 0.00 0.00 75 1016.2
20260507210053 55 19 0.0 0.0 0.00 0.00 0.00 75 1016.1
20260507210006 54 19 0.0 0.0 0.00 0.00 0.00 75 1016.1
20260507205544 55 19 0.0 0.0 0.00 0.00 0.00 75 1016.1
20260507205049 55 19 0.0 0.0 0.00 0.00 0.00 75 1016.1
20260507204701 55 19 0.0 0.0 0.00 0.00 0.00 74 1016.1
20260507204557 55 19 0.0 0.0 0.00 0.00 0.00 74 1016.0
20260507204044 55 19 0.0 0.0 0.00 0.00 0.00 74 1016.0
20260507203618 56 19 0.0 0.0 0.00 0.00 0.00 74 1016.0
20260507203144 55 19 0.0 0.0 0.00 0.00 0.00 73 1015.9
20260507203043 56 19 0.0 0.0 0.00 0.00 0.00 73 1015.9
20260507202555 56 19 0.0 0.0 0.00 0.00 0.00 73 1015.9
20260507202043 56 19 0.0 0.0 0.00 0.00 0.00 73 1015.9
20260507201655 55 18 0.0 0.0 0.00 0.00 0.00 73 1015.9
20260507201553 56 18 0.0 0.0 0.00 0.00 0.00 73 1015.9
20260507201040 56 28 0.0 0.0 0.00 0.00 0.00 73 1015.9
20260507200552 56 51 0.0 0.0 0.00 0.00 0.00 73 1015.9
20260507200143 56 24 0.0 0.0 0.00 0.00 0.00 73 1015.9
20260507200039 56 19 0.0 0.0 0.00 0.00 0.00 73 1015.8
20260507195611 56 18 0.0 0.0 0.00 0.00 0.00 73 1015.8
20260507195117 57 24 0.0 0.0 0.00 0.00 0.00 72 1015.8
20260507194651 56 24 0.0 0.0 0.00 0.00 0.00 72 1015.7
20260507194546 57 24 0.0 0.0 0.00 0.00 0.00 72 1015.7
20260507194053 57 25 0.0 0.0 0.00 0.00 0.00 72 1015.7
20260507193545 57 25 0.0 0.0 0.00 0.00 0.00 72 1015.6
20260507193156 57 26 0.0 0.0 0.00 0.00 0.00 71 1015.6
20260507193052 57 26 0.0 0.0 0.00 0.00 0.00 71 1015.6
20260507192548 57 24 0.0 0.0 0.00 0.00 0.00 71 1015.5
20260507192111 57 24 0.0 0.0 0.00 0.00 0.00 71 1015.4
20260507191647 57 24 0.0 0.0 0.00 0.00 0.00 71 1015.4
20260507191546 58 24 0.0 0.0 0.00 0.00 0.00 71 1015.4
20260507191105 58 27 0.0 0.0 0.00 0.00 0.00 70 1015.4
20260507190617 58 26 0.0 0.0 0.00 0.00 0.00 70 1015.4
20260507185553 58 53 0.0 0.0 0.00 0.04 0.00 70 1015.3
20260507185039 58 26 0.0 0.0 0.00 0.04 0.00 70 1015.3
20260507184652 58 22 0.0 0.0 0.00 0.01 0.00 69 1015.3
20260507184550 58 22 0.0 0.0 0.00 0.04 0.00 69 1015.3
20260507184041 58 22 0.0 0.0 0.00 0.04 0.00 69 1015.3
20260507183553 59 13 0.0 0.0 0.00 0.04 0.00 69 1015.3
20260507183056 59 22 0.0 0.0 0.00 0.04 0.00 68 1015.3
20260507183012 58 23 0.0 0.0 0.00 0.01 0.00 68 1015.3
20260507182547 59 20 0.0 0.0 0.00 0.04 0.00 68 1015.3
20260507182054 59 26 0.0 0.0 0.00 0.04 0.00 68 1015.3
20260507181643 59 26 0.0 0.0 0.00 0.01 0.00 68 1015.2
20260507181543 59 26 0.0 0.0 0.00 0.04 0.00 68 1015.2
20260507181049 59 26 0.0 0.0 0.00 0.04 0.00 67 1015.2
20260507180559 59 26 0.0 0.0 0.00 0.04 0.00 67 1015.1
20260507180146 59 26 0.0 0.0 0.00 0.02 0.00 66 1015.1
20260507180045 60 26 0.0 0.0 0.00 0.08 0.00 66 1015.1
20260507175557 60 26 0.0 0.0 0.00 0.08 0.00 66 1015.0
20260507175041 60 26 0.0 0.0 0.00 0.08 0.00 66 1015.0
20260507174654 59 26 0.0 0.0 0.00 0.02 0.00 66 1015.0
20260507174552 60 26 0.0 0.0 0.00 0.08 0.00 66 1015.0
20260507174117 60 26 0.0 0.0 0.00 0.08 0.00 66 1015.0
20260507173604 60 26 0.0 0.0 0.00 0.08 0.00 66 1015.0
20260507173050 60 26 0.0 0.0 0.00 0.08 0.00 66 1014.9
20260507173004 60 26 0.0 0.0 0.00 0.02 0.00 66 1014.9
20260507172600 60 26 0.0 0.0 0.00 0.08 0.00 66 1014.9
20260507172044 60 26 0.0 0.0 0.00 0.08 0.00 65 1014.8
20260507171553 60 26 0.0 0.0 0.00 0.08 0.00 65 1014.8
20260507171039 61 26 0.0 0.0 0.00 0.08 0.00 66 1014.8
20260507170550 61 26 0.0 0.0 0.00 0.08 0.00 65 1014.8
20260507170157 60 26 0.0 0.0 0.00 0.02 0.00 64 1014.8
20260507170057 61 26 0.0 0.0 0.00 0.12 0.00 65 1014.8
20260507165548 61 26 0.0 0.0 0.00 0.12 0.00 64 1014.8
20260507165052 61 26 0.0 0.0 0.00 0.12 0.00 64 1014.9
20260507164648 60 26 0.0 0.0 0.00 0.02 0.00 64 1014.8
20260507164544 61 26 0.0 0.0 0.00 0.12 0.00 64 1014.8
20260507164053 61 26 0.0 0.0 0.00 0.12 0.00 65 1014.8
20260507163541 61 26 0.0 0.0 0.00 0.12 0.00 63 1014.8
20260507163150 60 26 0.0 0.0 0.00 0.02 0.00 63 1014.8
20260507163048 61 26 0.0 0.0 0.00 0.12 0.00 64 1014.8
20260507162540 61 26 0.0 0.0 0.00 0.12 0.00 64 1014.8
20260507162047 61 26 0.0 0.0 0.00 0.12 0.00 64 1014.8
20260507161700 60 26 0.0 0.0 0.00 0.02 0.00 62 1014.8
20260507161559 61 26 0.0 0.0 0.00 0.12 0.00 62 1014.8
20260507161045 61 26 0.0 0.0 0.00 0.12 0.00 63 1014.8
20260507160555 61 26 0.0 0.0 0.00 0.12 0.00 62 1014.8
20260507160145 61 26 0.0 0.0 0.00 0.02 0.00 62 1014.8
20260507160043 61 26 0.0 0.0 0.00 0.12 0.00 63 1014.8
20260507155553 62 26 0.0 0.0 0.00 0.12 0.00 63 1014.7
20260507155056 62 26 0.0 0.0 0.00 0.12 0.00 63 1014.7
20260507154648 61 30 0.0 0.0 0.00 0.02 0.00 62 1014.7
20260507154546 62 30 0.0 0.0 0.00 0.12 0.00 62 1014.7
20260507154053 62 30 0.0 0.0 0.00 0.12 0.00 62 1014.7
20260507153544 62 30 0.0 0.0 0.00 0.12 0.00 62 1014.7
20260507153052 62 30 0.0 0.0 0.00 0.12 0.00 63 1014.7
20260507153006 62 30 0.0 0.0 0.00 0.02 0.00 63 1014.7
20260507152604 62 30 0.0 0.0 0.00 0.12 0.00 63 1014.7
20260507152047 62 30 0.0 0.0 0.00 0.12 0.00 63 1014.7
20260507151701 62 29 0.0 0.0 0.00 0.02 0.00 63 1014.7
20260507151559 62 29 0.0 0.0 0.00 0.12 0.00 62 1014.6
20260507151046 63 29 0.0 0.0 0.00 0.12 0.00 62 1014.6
20260507150540 63 29 0.0 0.0 0.00 0.12 0.00 63 1014.5
20260507150104 63 26 0.0 0.0 0.00 0.12 0.00 62 1014.5
20260507145553 63 29 0.0 0.0 0.00 0.12 0.00 61 1014.5
20260507145059 63 24 0.0 0.0 0.00 0.12 0.00 60 1014.5
20260507144654 63 24 0.0 0.0 0.00 0.02 0.00 61 1014.5
20260507144551 63 360 0.0 0.0 0.00 0.12 0.00 61 1014.4
20260507144056 64 360 0.0 0.0 0.00 0.12 0.00 62 1014.4
20260507143548 64 360 0.0 0.0 0.00 0.12 0.00 60 1014.4
20260507143140 63 360 0.0 0.0 0.00 0.02 0.00 59 1014.5
20260507143039 64 360 0.0 0.0 0.00 0.12 0.00 60 1014.4
20260507142551 64 40 0.0 0.0 0.00 0.12 0.00 60 1014.4
20260507142037 64 40 0.0 0.0 0.00 0.12 0.00 59 1014.5
20260507141652 63 25 0.0 0.0 0.00 0.02 0.00 59 1014.6
20260507141549 64 360 0.0 0.0 0.00 0.12 0.00 58 1014.6
20260507141057 63 360 0.0 0.0 0.00 0.12 0.00 60 1014.6
20260507140545 63 13 0.0 0.0 0.00 0.12 0.00 61 1014.6
20260507140153 63 13 0.0 0.0 0.00 0.02 0.00 61 1014.7
20260507140053 63 13 0.0 0.0 0.00 0.12 0.00 60 1014.6
20260507135545 63 350 0.0 0.0 0.00 0.12 0.00 59 1014.6
20260507135050 63 349 0.0 0.0 0.00 0.12 0.00 60 1014.6
20260507134643 63 349 0.0 0.0 0.00 0.02 0.00 60 1014.8
20260507134542 63 346 0.0 0.0 0.00 0.12 0.00 59 1014.7
20260507134049 63 346 0.0 0.0 0.00 0.12 0.00 61 1014.8
20260507133559 64 360 0.0 0.0 0.00 0.12 0.00 60 1014.8
20260507133048 64 304 0.0 0.0 0.00 0.12 0.00 59 1014.8
20260507133002 63 304 0.0 0.0 0.00 0.02 0.00 59 1014.9
20260507132600 64 35 0.0 0.0 0.00 0.12 0.00 58 1014.8
20260507132045 65 33 0.0 0.0 0.00 0.12 0.00 57 1014.7
20260507131659 65 53 0.0 0.0 0.00 0.02 0.00 56 1014.8
20260507131557 65 21 0.0 0.0 0.00 0.12 0.00 57 1014.8
20260507131040 65 54 0.0 0.0 0.00 0.12 0.00 57 1014.7
20260507130552 64 52 0.0 0.0 0.00 0.12 0.00 59 1014.8
20260507130201 64 52 0.0 0.0 0.00 0.03 0.00 60 1014.7
20260507130100 64 51 0.0 0.0 0.00 0.16 0.00 59 1014.6
20260507125548 65 36 0.0 0.0 0.00 0.16 0.00 57 1014.6
20260507125056 65 53 0.0 0.0 0.00 0.16 0.00 57 1014.6
20260507124649 64 23 0.0 0.0 0.00 0.03 0.00 61 1014.6
20260507124548 65 20 0.0 0.0 0.00 0.16 0.00 61 1014.6
20260507124111 65 20 0.0 0.0 0.00 0.16 0.00 58 1014.6
20260507123601 66 22 0.0 0.0 0.00 0.16 0.00 56 1014.6
20260507123149 66 47 0.0 0.0 0.00 0.03 0.00 58 1014.6
20260507123047 66 47 0.0 0.0 0.00 0.16 0.00 59 1014.5
20260507122559 65 239 0.0 0.0 0.00 0.16 0.00 58 1014.5
20260507122105 65 243 0.0 0.0 0.00 0.16 0.00 58 1014.6
20260507121659 64 59 0.0 0.0 0.00 0.03 0.00 59 1014.6
20260507121557 65 59 0.0 0.0 0.00 0.16 0.00 60 1014.5
20260507121045 65 24 0.0 0.0 0.00 0.16 0.00 61 1014.6
20260507120556 65 51 0.0 0.0 0.00 0.16 0.00 59 1014.6
20260507120145 65 44 0.0 0.0 0.00 0.03 0.00 59 1014.6
20260507120044 65 44 0.0 0.0 0.00 0.16 0.00 58 1014.6
20260507115556 65 44 0.0 0.0 0.00 0.16 0.00 59 1014.6
20260507115103 65 69 0.0 0.0 0.00 0.16 0.00 61 1014.6
20260507114655 64 59 0.0 0.0 0.00 0.03 0.00 64 1014.6
20260507114555 64 57 0.0 0.0 0.00 0.16 0.00 63 1014.6
20260507114043 64 57 0.0 0.0 0.00 0.16 0.00 58 1014.6
20260507113553 64 34 0.0 0.0 0.00 0.16 0.00 60 1014.6
20260507113109 64 26 0.0 0.0 0.00 0.16 0.00 61 1014.7
20260507113005 64 25 0.0 0.0 0.00 0.03 0.00 62 1014.6
20260507111503 65 26 0.0 0.0 0.00 0.03 0.00 60 1014.6
20260507104555 63 49 0.0 0.0 0.00 0.09 0.00 66 1014.7
20260507103056 63 48 0.0 0.0 0.00 0.09 0.00 65 1014.7
20260507101551 63 49 0.0 0.0 0.00 0.09 0.00 72 1014.8
20260507100051 62 23 0.0 0.0 0.00 0.15 0.00 75 1014.5
20260507094556 62 5 0.0 0.0 0.00 0.15 0.00 78 1014.6
20260507093041 60 26 0.0 0.0 0.00 0.15 0.00 82 1014.5
20260507091538 60 348 0.0 0.0 0.00 0.15 0.00 88 1014.4
20260507090034 58 41 0.0 0.0 0.00 0.17 0.00 93 1014.4
20260507084533 57 355 0.0 0.0 0.00 0.17 0.00 96 1014.4
20260507083027 56 44 0.0 0.0 0.00 0.17 0.00 97 1014.3